Location: Unspecified
(51.0950°N, 12.9690°E)
Time: 21:52:46
(UTC+00:00)

Cosmos 1544 Rocket - Pass Details

Date: 28 October 2021
Orbit: 603 x 632 km, 82.5° (Epoch: 01 December)

Event Time Altitude Azimuth Distance (km) Brightness Sun altitude
Rises 16:50:43 0° 187° (S) 2,913 7.2 -10.2°
Reaches altitude 10° 16:52:57 10° 188° (S) 2,009 6.4 -10.5°
Maximum altitude 16:57:25 87° 100° (E) 638 3.6 -11.2°
Drops below altitude 10° 17:01:54 10° 11° (N) 2,016 6.0 -11.9°
Sets 17:04:08 0° 11° (N) 2,924 6.8 -12.3°
